This demonstration page uses our WeatherBlox Daily Observations layout. Learn more.

41.86663, -103.66717

Hourly Observations for December 22, 2019

Temp ( °F °C ) Dew Point ( °F °C ) Humidity (%) Winds ( mph kmh ) Pressure ( in mb ) Visibility ( mi km ) Precip ( " mm )
12:53 am 00:53 Clear 29 -1.7 24 -4.4 82 82 NNE 7 11 30.08 1019 10 16.0934 0 0
1:53 am 01:53 Clear 27 -2.8 23 -5 85 85 NNW 5 7 30.09 1019 10 16.0934 0 0
2:53 am 02:53 Clear 28 -2.2 23 -5 81 81 NNW 7 11 30.07 1018 10 16.0934 0 0
3:53 am 03:53 Clear 31 -0.6 24 -4.4 76 76 Calm 30.07 1018 10 16.0934 0 0
4:53 am 04:53 Clear 27 -2.8 23 -5 85 85 NNW 3 6 30.09 1019 10 16.0934 0 0
5:53 am 05:53 Clear 27 -2.8 23 -5 85 85 WNW 5 7 30.11 1020 10 16.0934 0 0
6:53 am 06:53 Clear 25 -3.9 23 -5 92 92 NW 5 7 30.1 1019 10 16.0934 0 0
7:53 am 07:53 Sunny 26 -3.3 23 -5 88 88 N 6 9 30.11 1020 10 16.0934 0 0
8:53 am 08:53 Sunny 31 -0.6 26 -3.3 82 82 NW 3 6 30.13 1020 10 16.0934 0 0
9:53 am 09:53 Sunny 35 1.7 28 -2.2 76 76 S 7 11 30.13 1020 10 16.0934 0 0
10:53 am 10:53 Sunny 41 5 29 -1.7 62 62 Calm 30.1 1019 10 16.0934 0 0
11:53 am 11:53 Sunny 46 7.8 27 -2.8 47 47 N 3 6 30.06 1018 10 16.0934 0 0
12:53 pm 12:53 Sunny 47 8.3 32 0 56 56 W 3 6 30.04 1017 10 16.0934 0 0
1:53 pm 13:53 Sunny 45 7.2 29 -1.7 54 54 W 5 7 30.03 1017 10 16.0934 0 0
2:53 pm 14:53 Sunny 45 7.2 30 -1.1 56 56 WNW 6 9 30.03 1017 10 16.0934 0 0
3:53 pm 15:53 Sunny 40 4.4 30 -1.1 68 68 NNW 7 11 30.03 1017 10 16.0934 0 0
4:53 pm 16:53 Clear 40 4.4 27 -2.8 60 60 WNW 7 11 30.05 1018 10 16.0934 0 0
5:53 pm 17:53 Clear 37 2.8 25 -3.9 62 62 NW 6 9 30.05 1018 10 16.0934 0 0
6:53 pm 18:53 Clear 40 4.4 25 -3.9 55 55 NW 9 15 30.04 1017 10 16.0934 0 0
7:53 pm 19:53 Clear 36 2.2 29 -1.7 76 76 ESE 5 7 30.08 1019 10 16.0934 0 0
8:53 pm 20:53 Clear 33 0.6 28 -2.2 82 82 E 6 9 30.07 1018 10 16.0934 0 0
9:53 pm 21:53 Clear 35 1.7 27 -2.8 72 72 NNE 5 7 30.04 1017 10 16.0934 0 0
10:53 pm 22:53 Clear 33 0.6 27 -2.8 78 78 N 7 11 30.02 1017 10 16.0934 0 0
11:53 pm 23:53 Clear 32 0 27 -2.8 82 82 N 3 6 29.99 1016 10 16.0934 0 0

Powered by AerisWeather